This demonstration page uses our WeatherBlox Daily Observations layout. Learn more.

Hourly Observations for January 18, 2015

Temp ( °F °C ) Dew Point ( °F °C ) Humidity (%) Winds ( mph kmh ) Pressure ( in mb ) Visibility ( mi km ) Precip ( " mm )
12:15 am 00:15 Clear 33 0.8 22 -5.5 63 63 WSW 12 19 30.12 1020 10 16.0934 0 0
12:35 am 00:35 Clear 33 0.7 22 -5.3 65 65 W 15 24 30.15 1021 10 16.0934 0 0
12:55 am 00:55 Clear 33 0.7 23 -5.1 66 66 W 15 24 30.12 1020 10 16.0934 0 0
1:15 am 01:15 Clear 33 0.8 23 -5 66 66 W 14 22 30.12 1020 10 16.0934 0 0
1:35 am 01:35 Clear 33 0.5 23 -5 67 67 W 14 22 30.12 1020 10 16.0934 0 0
1:55 am 01:55 Clear 33 0.6 23 -4.8 67 67 W 15 24 30.12 1020 10 16.0934 0 0
2:15 am 02:15 Clear 33 0.3 23 -4.8 69 69 W 14 22 30.12 1020 10 16.0934 0 0
2:35 am 02:35 Clear 32 0 23 -4.9 70 70 W 13 20 30.12 1020 10 16.0934 0 0
2:55 am 02:55 Clear 32 0 23 -5 69 69 W 12 19 30.12 1020 10 16.0934 0 0
3:15 am 03:15 Clear 32 0 23 -4.9 70 70 W 10 17 30.09 1019 10 16.0934 0 0
3:35 am 03:35 Clear 33 0.5 23 -4.8 68 68 WSW 10 17 30.09 1019 10 16.0934 0 0
3:55 am 03:55 Clear 31 -0.7 23 -5.2 72 72 WSW 5 7 30.12 1020 10 16.0934 0 0
4:15 am 04:15 Clear 32 0 24 -4.5 72 72 W 9 15 30.09 1019 10 16.0934 0 0
4:35 am 04:35 Clear 32 -0.2 24 -4.7 72 72 W 8 13 30.09 1019 10 16.0934 0 0
4:55 am 04:55 Clear 32 0 24 -4.5 72 72 W 8 13 30.06 1018 10 16.0934 0 0
5:15 am 05:15 Clear 30 -1 23 -4.8 76 76 W 8 13 30.09 1019 10 16.0934 0 0
5:35 am 05:35 Clear 30 -1 23 -5 75 75 W 8 13 30.09 1019 10 16.0934 0 0
5:55 am 05:55 Clear 31 -0.8 23 -5.1 73 73 W 5 7 30.06 1018 10 16.0934 0 0
6:15 am 06:15 Clear 27 -2.9 20 -6.4 77 77 Calm 30.06 1018 10 16.0934 0 0
6:35 am 06:35 Clear 25 -4.1 20 -6.6 83 83 Calm 30.06 1018 10 16.0934 0 0
6:55 am 06:55 Clear 24 -4.5 19 -7 83 83 W 7 11 30.06 1018 10 16.0934 0 0
7:15 am 07:15 Clear 28 -2.3 22 -5.5 79 79 W 6 9 30.06 1018 10 16.0934 0 0
7:35 am 07:35 Clear 29 -1.4 23 -5.1 76 76 W 8 13 30.06 1018 10 16.0934 0 0
7:55 am 07:55 Clear 30 -1.2 23 -5.1 75 75 SW 5 7 30.06 1018 10 16.0934 0 0
8:15 am 08:15 Sunny 29 -1.9 22 -5.7 76 76 SSW 6 9 30.03 1017 10 16.0934 0 0
8:35 am 08:35 Sunny 29 -1.7 22 -5.3 77 77 W 6 9 30.06 1018 10 16.0934 0 0
8:55 am 08:55 Sunny 32 0 25 -3.9 75 75 W 5 7 30.03 1017 10 16.0934 0 0
9:15 am 09:15 Sunny 34 1.1 25 -3.7 71 71 W 9 15 30.03 1017 10 16.0934 0 0
9:35 am 09:35 Sunny 37 2.6 26 -3.1 66 66 W 9 15 30 1016 10 16.0934 0 0
9:55 am 09:55 Sunny 40 4.6 26 -3.2 57 57 W 8 13 30 1016 10 16.0934 0 0
10:15 am 10:15 Sunny 43 6.3 27 -2.7 53 53 WNW 6 9 29.97 1015 10 16.0934 0 0
10:35 am 10:35 Sunny 47 8.1 25 -3.9 43 43 WNW 8 13 29.97 1015 10 16.0934 0 0
10:55 am 10:55 Sunny 48 8.9 23 -5.1 37 37 NW 9 15 29.94 1014 10 16.0934 0 0
11:15 am 11:15 Sunny 49 9.3 22 -5.4 35 35 WNW 13 20 29.94 1014 10 16.0934 0 0
11:35 am 11:35 Sunny 49 9.6 22 -5.6 34 34 NW 13 20 29.94 1014 10 16.0934 0 0
11:55 am 11:55 Sunny 50 9.9 21 -6 32 32 NW 17 28 29.94 1014 10 16.0934 0 0
12:15 pm 12:15 Sunny 49 9.6 22 -5.5 34 34 NW 16 26 29.94 1014 10 16.0934 0 0
12:35 pm 12:35 Sunny 50 10 23 -5.1 34 34 NW 14 22 29.94 1014 10 16.0934 0 0
12:55 pm 12:55 Sunny 50 10.1 23 -4.9 35 35 NW 15 24 29.94 1014 10 16.0934 0 0
1:15 pm 13:15 Sunny 50 10.1 22 -5.3 34 34 NNW 13 20 29.91 1013 10 16.0934 0 0
1:35 pm 13:35 Sunny 51 10.6 23 -4.9 34 34 NNW 13 20 29.94 1014 10 16.0934 0 0
1:55 pm 13:55 Sunny 52 10.9 23 -4.8 33 33 NW 12 19 29.94 1014 10 16.0934 0 0
2:15 pm 14:15 Sunny 52 11.2 24 -4.2 34 34 NW 13 20 29.91 1013 10 16.0934 0 0
2:35 pm 14:35 Sunny 53 11.5 23 -4.9 32 32 NW 15 24 29.88 1012 10 16.0934 0 0
2:55 pm 14:55 Sunny 54 12.1 23 -4.8 31 31 NW 14 22 29.91 1013 10 16.0934 0 0
3:15 pm 15:15 Sunny 55 12.5 21 -5.9 27 27 NW 13 20 29.91 1013 10 16.0934 0 0
3:35 pm 15:35 Sunny 55 12.7 22 -5.3 28 28 NW 10 17 29.91 1013 10 16.0934 0 0
3:55 pm 15:55 Sunny 55 12.5 23 -5 29 29 NW 8 13 29.91 1013 10 16.0934 0 0
4:15 pm 16:15 Sunny 55 12.6 22 -5.6 28 28 NW 9 15 29.91 1013 10 16.0934 0 0
4:35 pm 16:35 Sunny 53 11.7 24 -4.7 32 32 NW 8 13 29.91 1013 10 16.0934 0 0
4:55 pm 16:55 Sunny 50 10.2 24 -4.5 36 36 NW 6 9 29.94 1014 10 16.0934 0 0
5:15 pm 17:15 Sunny 48 8.9 23 -5 37 37 NW 7 11 29.94 1014 10 16.0934 0 0
5:35 pm 17:35 Sunny 47 8.4 21 -6 36 36 WNW 6 9 30 1016 10 16.0934 0 0
5:55 pm 17:55 Clear 47 8.4 22 -5.8 36 36 W 7 11 30 1016 10 16.0934 0 0
6:15 pm 18:15 Clear 45 7.2 22 -5.6 40 40 WNW 5 7 30 1016 10 16.0934 0 0
6:35 pm 18:35 Clear 44 6.8 21 -6.1 40 40 W 7 11 30 1016 10 16.0934 0 0
6:55 pm 18:55 Clear 44 6.4 21 -6.2 40 40 W 6 9 29.97 1015 10 16.0934 0 0
7:15 pm 19:15 Clear 39 3.8 21 -6 49 49 Calm 30.03 1017 10 16.0934 0 0
7:35 pm 19:35 Clear 39 4.1 21 -5.9 49 49 W 3 6 30.03 1017 10 16.0934 0 0
7:55 pm 19:55 Clear 40 4.3 22 -5.8 48 48 W 6 9 30.03 1017 10 16.0934 0 0
8:15 pm 20:15 Clear 40 4.2 21 -6 48 48 W 6 9 30.03 1017 10 16.0934 0 0
8:35 pm 20:35 Clear 39 3.8 22 -5.8 50 50 SW 5 7 30.03 1017 10 16.0934 0 0
8:55 pm 20:55 Clear 39 3.8 22 -5.5 51 51 SW 3 6 30.03 1017 10 16.0934 0 0
9:15 pm 21:15 Clear 39 4.1 22 -5.5 50 50 SW 5 7 30.03 1017 10 16.0934 0 0
9:35 pm 21:35 Clear 40 4.5 22 -5.5 49 49 WSW 3 6 30.03 1017 10 16.0934 0 0
9:55 pm 21:55 Clear 40 4.5 22 -5.5 49 49 W 5 7 30.03 1017 10 16.0934 0 0
10:15 pm 22:15 Clear 39 3.9 22 -5.5 51 51 WSW 3 6 30.03 1017 10 16.0934 0 0
10:35 pm 22:35 Clear 40 4.3 23 -5.2 50 50 W 5 7 30.03 1017 10 16.0934 0 0
10:55 pm 22:55 Clear 39 3.9 23 -4.8 53 53 WSW 5 7 30.03 1017 10 16.0934 0 0
11:15 pm 23:15 Clear 39 3.7 24 -4.6 55 55 WSW 3 6 30.03 1017 10 16.0934 0 0
11:35 pm 23:35 Clear 40 4.4 24 -4.6 52 52 WSW 3 6 30.03 1017 10 16.0934 0 0
11:55 pm 23:55 Clear 40 4.7 25 -3.8 54 54 Calm 30.03 1017 10 16.0934 0 0

Powered by AerisWeather